Location: Stonelick Lake State Park
(39.2170°N, 84.0850°W)
Time: 14:49:33
(UTC-04:00)

Amateur Radio Satellites - All Passes

Search period start: 02 September 2014 14:19
Search period end: 03 September 2014 14:19
Location: Stonelick Lake State Park, 39.2170°N, 84.0850°W

Satellite Date Start Highest point End Downlink Frequencies (MHz)
Time Altitude Azimuth
Oscar 16 02 Sep 14:30:52 14:36:01 76° 257° (WSW) 14:41:13 437.025 USB, Beacon 2401.1428
MaSat-1 02 Sep 14:31:57 14:36:13 28° 305° (NW) 14:40:39 437.345 MHz
ITAMSAT 1 02 Sep 14:34:39 14:39:37 49° 71° (ENE) 14:44:36 435.822 SSB
ISS 02 Sep 14:40:37 14:41:50 12° 11° (N) 14:43:03 145.800 FM
Uribyol 2 02 Sep 14:43:42 14:48:47 65° 73° (ENE) 14:53:54 436.500 FM
AO-7 02 Sep 14:45:01 14:48:21 13° 46° (NE) 14:51:41 29.400 - 29.500 MHz
PANSAT 02 Sep 14:49:31 14:51:04 12° 193° (SSW) 14:52:37 not established
TMSAT-1 02 Sep 14:59:44 15:04:10 28° 67° (ENE) 15:08:38 436.925 FM
AO-27 02 Sep 15:04:15 15:09:26 85° 256° (WSW) 15:14:38 436.795 MHz FM
UOSAT-12 02 Sep 15:18:42 15:23:11 44° 244° (WSW) 15:27:35 437.025 FM, 437.400 FM
Oscar 19 02 Sep 15:36:35 15:40:13 19° 267° (W) 15:43:52 437.125 CW, 437.150 USB
PCSat 02 Sep 15:38:26 15:39:41 11° 102° (ESE) 15:40:57 145.825 MHz
AO-Echo 02 Sep 15:39:27 15:43:59 34° 262° (W) 15:48:26 ?
Gurwin Techsat 1B 02 Sep 15:48:55 15:54:12 75° 257° (WSW) 15:59:32 435.225 FM
JAS-1B 02 Sep 16:03:21 16:12:32 45° 262° (W) 16:20:54 435.800 - 435.900 CW/SSB
ITAMSAT 1 02 Sep 16:15:49 16:19:22 19° 267° (W) 16:22:55 435.822 SSB
ISS 02 Sep 16:16:18 16:19:22 33° 30° (NNE) 16:22:25 145.800 FM
RS-15 02 Sep 16:24:56 16:35:39 51° 49° (NE) 16:46:42 29.354 - 29.394 USB, Beacon 29.352 USB
Uribyol 2 02 Sep 16:26:04 16:28:42 14° 269° (W) 16:31:20 436.500 FM
AO-7 02 Sep 16:31:18 16:39:26 60° 67° (ENE) 16:47:34 29.400 - 29.500 MHz
Uosat F 02 Sep 16:32:13 16:36:51 39° 70° (ENE) 16:41:29 435.120 FM
TMSAT-1 02 Sep 16:39:10 16:43:57 34° 263° (W) 16:48:45 436.925 FM
Sapphire 02 Sep 16:48:02 16:53:11 48° 112° (ESE) 16:58:22 437.095 MHz 1200 baud AX-25 AFSK
PCSat 02 Sep 17:16:51 17:22:16 89° 298° (WNW) 17:27:43 145.825 MHz
ISS 02 Sep 17:53:09 17:56:01 27° 227° (SW) 17:58:52 145.800 FM
OPAL 02 Sep 18:05:28 18:10:40 63° 104° (ESE) 18:15:48 ?
Uosat F 02 Sep 18:11:53 18:15:44 22° 265° (W) 18:19:37 435.120 FM
JAS-2 02 Sep 18:25:05 18:30:58 55° 73° (ENE) 18:36:17 435.800 - 435.900 CW/SSB, 435.910 FM
AO-7 02 Sep 18:25:39 18:32:35 29° 264° (W) 18:39:35 29.400 - 29.500 MHz
Sapphire 02 Sep 18:32:24 18:36:49 25° 310° (NW) 18:41:17 437.095 MHz 1200 baud AX-25 AFSK
RS-15 02 Sep 18:37:31 18:47:57 48° 250° (WSW) 18:58:49 29.354 - 29.394 USB, Beacon 29.352 USB
Hamsat 02 Sep 18:51:13 18:55:32 82° 258° (WSW) 18:59:55 145.90 MHz
PCSat 02 Sep 19:03:25 19:06:28 15° 317° (NW) 19:09:31 145.825 MHz
SO-67 02 Sep 19:11:19 19:13:46 18° 70° (ENE) 19:16:13 435.3500 MHz FM
OPAL 02 Sep 19:45:45 19:49:00 17° 300° (WNW) 19:52:14 ?
STRAND 1 02 Sep 19:54:33 19:59:17 37° 98° (E) 20:03:59 ?
JAS-2 02 Sep 20:12:12 20:16:17 19° 266° (W) 20:20:09 435.800 - 435.900 CW/SSB, 435.910 FM
HO-68 02 Sep 20:32:03 20:37:47 27° 61° (ENE) 20:43:31 435.675 MHz FM
SO-67 02 Sep 20:43:54 20:46:40 22° 265° (W) 20:49:26 435.3500 MHz FM
UKube-1 02 Sep 20:55:39 20:56:55 11° 62° (ENE) 20:58:11 145.840 MHz, 145.915 MHz
Saudisat 1A 02 Sep 21:20:12 21:20:45 10° 107° (ESE) 21:21:17 436.775 MHz
STRAND 1 02 Sep 21:34:09 21:38:16 25° 294° (WNW) 21:42:22 ?
KITSAT 1 02 Sep 21:52:34 21:55:10 12° 98° (E) 21:57:46 435.175 FM
HO-68 02 Sep 22:18:01 22:25:01 58° 258° (WSW) 22:32:03 435.675 MHz FM
UKube-1 02 Sep 22:28:14 22:32:32 68° 258° (WSW) 22:36:52 145.840 MHz, 145.915 MHz
Oscar 11 02 Sep 22:30:49 22:35:08 78° 76° (ENE) 22:39:31 145.825 FM, Beacon 2401.500 USB
MaSat-1 02 Sep 22:50:00 22:54:25 58° 62° (ENE) 22:58:12 437.345 MHz
Saudisat 1A 02 Sep 22:55:17 22:59:40 75° 302° (WNW) 23:04:06 436.775 MHz
FUNcube-1 02 Sep 23:05:44 23:09:54 71° 76° (ENE) 23:14:11 145.950 - 145.970 MHz USB
KITSAT 1 02 Sep 23:41:06 23:49:08 72° 115° (ESE) 23:57:11 435.175 FM
PCSat 03 Sep 00:25:49 00:26:42 10° 38° (NE) 00:27:35 145.825 MHz
MaSat-1 03 Sep 00:29:57 00:30:33 10° 263° (W) 00:31:08 437.345 MHz
Saudisat 1A 03 Sep 00:38:55 00:40:02 11° 321° (NW) 00:41:09 436.775 MHz
Sapphire 03 Sep 01:37:08 01:41:59 32° 53° (NE) 01:46:47 437.095 MHz 1200 baud AX-25 AFSK
KITSAT 1 03 Sep 01:38:25 01:45:14 29° 316° (NW) 01:52:04 435.175 FM
PCSat 03 Sep 02:05:57 02:11:19 58° 59° (ENE) 02:16:38 145.825 MHz
Oscar 19 03 Sep 02:09:23 02:12:58 19° 93° (E) 02:16:31 437.125 CW, 437.150 USB
Oscar 10/S400 03 Sep 02:31:11 03:36:02 49° 219° (SW) 10:06:50 145.825 - 145.975 CW/USB, Beacon 145.810 USB
Oscar 16 03 Sep 02:43:52 02:48:48 42° 99° (E) 02:53:40 437.025 USB, Beacon 2401.1428
ITAMSAT 1 03 Sep 02:49:31 02:53:11 19° 93° (E) 02:56:49 435.822 SSB
Uribyol 2 03 Sep 02:58:07 03:02:22 25° 95° (E) 03:06:35 436.500 FM
AO-27 03 Sep 03:18:38 03:23:26 37° 98° (E) 03:28:14 436.795 MHz FM
TMSAT-1 03 Sep 03:18:38 03:20:16 11° 89° (E) 03:21:54 436.925 FM
Sapphire 03 Sep 03:20:29 03:25:24 36° 250° (WSW) 03:30:17 437.095 MHz 1200 baud AX-25 AFSK
OPAL 03 Sep 03:44:09 03:46:18 13° 58° (ENE) 03:48:28 ?
AO-Echo 03 Sep 03:47:04 03:51:47 81° 103° (ESE) 03:56:32 ?
Oscar 19 03 Sep 03:47:33 03:52:34 50° 288° (WNW) 03:57:32 437.125 CW, 437.150 USB
SO-50 03 Sep 03:48:43 03:53:10 88° 121° (ESE) 03:57:46 436.795 FM
PCSat 03 Sep 03:50:37 03:54:13 18° 255° (WSW) 03:57:48 145.825 MHz
JAS-1B 03 Sep 03:51:46 03:58:13 66° 101° (ESE) 04:03:56 435.800 - 435.900 CW/SSB
Gurwin Techsat 1B 03 Sep 04:06:20 04:11:29 48° 99° (E) 04:16:35 435.225 FM
Oscar 16 03 Sep 04:23:50 04:27:51 23° 295° (WNW) 04:31:52 437.025 USB, Beacon 2401.1428
ITAMSAT 1 03 Sep 04:27:55 04:32:54 48° 289° (WNW) 04:37:52 435.822 SSB
AO-7 03 Sep 04:35:40 04:41:14 19° 92° (E) 04:46:44 29.400 - 29.500 MHz
Uribyol 2 03 Sep 04:37:08 04:41:54 38° 291° (WNW) 04:46:39 436.500 FM
Uosat F 03 Sep 04:42:48 04:45:00 13° 91° (E) 04:47:11 435.120 FM
TMSAT-1 03 Sep 04:55:27 05:00:46 80° 285° (WNW) 05:06:03 436.925 FM
AO-27 03 Sep 04:58:32 05:02:45 26° 294° (WNW) 05:06:57 436.795 MHz FM
OPAL 03 Sep 05:19:22 05:24:26 83° 254° (WSW) 05:29:37 ?
UOSAT-12 03 Sep 05:28:20 05:32:54 72° 119° (ESE) 05:37:36 437.025 FM, 437.400 FM
AO-Echo 03 Sep 05:29:03 05:29:53 10° 299° (WNW) 05:30:44 ?
SO-50 03 Sep 05:32:12 05:34:25 13° 320° (NW) 05:36:39 436.795 FM
KITSAT 1 03 Sep 05:43:26 05:44:17 10° 17° (NNE) 05:45:07 435.175 FM
JAS-1B 03 Sep 05:43:53 05:48:03 18° 303° (WNW) 05:51:54 435.800 - 435.900 CW/SSB
Gurwin Techsat 1B 03 Sep 05:47:11 05:51:04 21° 296° (WNW) 05:54:57 435.225 FM
Uosat F 03 Sep 06:19:15 06:24:13 67° 286° (WNW) 06:29:10 435.120 FM
AO-7 03 Sep 06:26:31 06:34:50 82° 289° (WNW) 06:43:06 29.400 - 29.500 MHz
Hamsat 03 Sep 06:39:02 06:42:10 19° 93° (E) 06:45:16 145.90 MHz
TMSAT-1 03 Sep 06:39:26 06:39:47 10° 302° (WNW) 06:40:09 436.925 FM
RS-15 03 Sep 06:48:49 06:58:05 32° 105° (ESE) 07:07:11 29.354 - 29.394 USB, Beacon 29.352 USB
STRAND 1 03 Sep 07:09:26 07:14:18 48° 71° (ENE) 07:19:12 ?
UOSAT-12 03 Sep 07:10:39 07:13:35 16° 318° (NW) 07:16:33 437.025 FM, 437.400 FM
JAS-2 03 Sep 07:19:05 07:24:18 51° 101° (E) 07:30:00 435.800 - 435.900 CW/SSB, 435.910 FM
Saudisat 1A 03 Sep 07:23:02 07:27:25 63° 56° (ENE) 07:31:46 436.775 MHz
KITSAT 1 03 Sep 07:35:53 07:42:54 31° 45° (NE) 07:49:50 435.175 FM
SO-67 03 Sep 08:08:18 08:11:10 24° 96° (E) 08:14:01 435.3500 MHz FM
Hamsat 03 Sep 08:14:17 08:18:12 34° 289° (WNW) 08:22:05 145.90 MHz
AO-7 03 Sep 08:21:14 08:26:23 19° 309° (NW) 08:31:33 29.400 - 29.500 MHz
STRAND 1 03 Sep 08:50:14 08:53:44 19° 267° (W) 08:57:14 ?
RS-15 03 Sep 08:58:34 09:09:34 68° 306° (NW) 09:20:29 29.354 - 29.394 USB, Beacon 29.352 USB
ISS 03 Sep 08:58:56 09:01:11 17° 130° (SE) 09:03:28 145.800 FM
Saudisat 1A 03 Sep 09:04:35 09:06:27 13° 252° (WSW) 09:08:18 436.775 MHz
JAS-2 03 Sep 09:05:21 09:09:07 20° 295° (WNW) 09:13:05 435.800 - 435.900 CW/SSB, 435.910 FM
KITSAT 1 03 Sep 09:30:52 09:38:51 66° 246° (WSW) 09:46:47 435.175 FM
SO-67 03 Sep 09:41:44 09:44:02 17° 291° (WNW) 09:46:19 435.3500 MHz FM
HO-68 03 Sep 09:47:17 09:53:21 29° 96° (E) 09:59:24 435.675 MHz FM
UKube-1 03 Sep 10:18:15 10:21:36 22° 95° (E) 10:24:57 145.840 MHz, 145.915 MHz
Oscar 11 03 Sep 10:20:55 10:23:32 16° 92° (E) 10:26:08 145.825 FM, Beacon 2401.500 USB
ISS 03 Sep 10:34:26 10:37:39 47° 326° (NW) 10:40:54 145.800 FM
SO-50 03 Sep 10:43:57 10:44:26 10° 36° (NE) 10:44:54 436.795 FM
FUNcube-1 03 Sep 10:56:56 10:59:49 16° 92° (E) 11:02:43 145.950 - 145.970 MHz USB
PANSAT 03 Sep 11:05:13 11:06:58 13° 168° (SSE) 11:08:44 not established
RS-15 03 Sep 11:16:12 11:24:29 24° 334° (NNW) 11:32:48 29.354 - 29.394 USB, Beacon 29.352 USB
KITSAT 1 03 Sep 11:32:18 11:32:42 10° 263° (W) 11:33:06 435.175 FM
HO-68 03 Sep 11:34:24 11:41:16 51° 292° (WNW) 11:48:07 435.675 MHz FM
UKube-1 03 Sep 11:53:59 11:57:49 31° 290° (WNW) 12:01:38 145.840 MHz, 145.915 MHz
Oscar 11 03 Sep 11:55:46 11:59:55 43° 288° (WNW) 12:04:02 145.825 FM, Beacon 2401.500 USB
ISS 03 Sep 12:13:21 12:15:02 13° 345° (NNW) 12:16:43 145.800 FM
SO-50 03 Sep 12:21:14 12:25:59 59° 56° (NE) 12:30:46 436.795 FM
FUNcube-1 03 Sep 12:32:02 12:36:24 46° 287° (WNW) 12:40:48 145.950 - 145.970 MHz USB
MaSat-1 03 Sep 12:36:01 12:40:23 34° 106° (ESE) 12:45:00 437.345 MHz
PANSAT 03 Sep 12:43:57 12:46:28 17° 181° (S) 12:48:59 not established
JAS-1B 03 Sep 12:48:23 12:52:05 13° 53° (NE) 12:55:36 435.800 - 435.900 CW/SSB
AO-Echo 03 Sep 13:24:47 13:25:44 11° 61° (ENE) 13:26:41 ?
Oscar 19 03 Sep 13:25:10 13:29:19 25° 66° (ENE) 13:33:29 437.125 CW, 437.150 USB
RS-15 03 Sep 13:35:41 13:42:36 18° 11° (N) 13:49:36 29.354 - 29.394 USB, Beacon 29.352 USB
ISS 03 Sep 13:52:28 13:52:57 10° 6° (N) 13:53:26 145.800 FM
UOSAT-12 03 Sep 13:59:05 14:03:39 46° 53° (NE) 14:08:08 437.025 FM, 437.400 FM
Oscar 16 03 Sep 13:59:42 14:04:43 55° 72° (ENE) 14:09:47 437.025 USB, Beacon 2401.1428
SO-50 03 Sep 14:03:12 14:06:05 16° 251° (WSW) 14:08:59 436.795 FM
ITAMSAT 1 03 Sep 14:06:27 14:10:44 27° 67° (ENE) 14:15:01 435.822 SSB
